H1 CPF 2 NER 2024 5 28 9 149 01 glonass129 H2 1106402 9129 37868 2024 5 28 0 0 0 2024 5 31 23 45 0 900 1 1 0 0 0 1 H9 10 0 60458 0.00000 0 11324181.435 -5197923.432 22294113.738 10 0 60458 900.00000 0 13658694.031 -3887959.645 21221471.349 10 0 60458 1800.00000 0 15943278.157 -2822941.669 19737981.252 10 0 60458 2700.00000 0 18110732.044 -2007915.300 17872099.645 10 0 60458 3600.00000 0 20095698.917 -1435463.155 15659716.684 10 0 60458 4500.00000 0 21837264.479 -1086222.360 13143487.793 10 0 60458 5400.00000 0 23281393.342 -929912.413 10372030.680 10 0 60458 6300.00000 0 24383102.429 -926831.531 7399001.426 10 0 60458 7200.00000 0 25108279.240 -1029759.737 4282065.896 10 0 60458 8100.00000 0 25435067.003 -1186189.265 1081785.334 10 0 60458 9000.00000 0 25354756.262 -1340788.257 -2139562.628 10 0 60458 9900.00000 0 24872142.955 -1437992.936 -5319204.263 10 0 60458 10800.00000 0 24005335.568 -1424617.166 -8395106.603 10 0 60458 11700.00000 0 22785017.527 -1252366.759 -11307205.236 10 0 60458 12600.00000 0 21253194.553 -880149.398 -13998597.130 10 0 60458 13500.00000 0 19461479.127 -276079.378 -16416673.098 10 0 60458 14400.00000 0 17468984.439 580910.676 -18514165.716 10 0 60458 15300.00000 0 15339917.285 1699922.091 -20250090.253 10 0 60458 16200.00000 0 13140972.463 3077457.256 -21590558.719 10 0 60458 17100.00000 0 10938639.718 4697330.058 -22509450.006 10 0 60458 18000.00000 0 8796537.896 6531124.486 -22988922.425 10 0 60458 18900.00000 0 6772889.427 8539182.534 -23019758.561 10 0 60458 19800.00000 0 4918241.796 10672079.659 -22601536.100 10 0 60458 20700.00000 0 3273531.582 12872525.183 -21742622.085 10 0 60458 21600.00000 0 1868571.487 15077606.905 -20459991.867 10 0 60458 22500.00000 0 721022.234 17221284.809 -18778877.600 10 0 60458 23400.00000 0 -164109.778 19237028.331 -16732254.655 10 0 60458 24300.00000 0 -794430.823 21060486.063 -14360177.511 10 0 60458 25200.00000 0 -1189579.151 22632075.779 -11708979.586 10 0 60458 26100.00000 0 -1380132.985 23899386.548 -8830354.021 10 0 60458 27000.00000 0 -1406056.390 24819293.107 -5780334.632 10 0 60458 27900.00000 0 -1314751.331 25359695.278 -2618197.815 10 0 60458 28800.00000 0 -1158800.343 25500811.283 594692.399 10 0 60458 29700.00000 0 -993496.634 25235972.912 3796073.367 10 0 60458 30600.00000 0 -874266.679 24571891.376 6923983.871 10 0 60458 31500.00000 0 -854094.158 23528384.816 9917952.281 10 0 60458 32400.00000 0 -981053.334 22137580.614 12720150.764 10 0 60458 33300.00000 0 -1296054.821 20442627.114 15276494.473 10 0 60458 34200.00000 0 -1830897.396 18495969.110 17537666.065 10 0 60458 35100.00000 0 -2606706.532 16357258.943 19460047.627 10 0 60458 36000.00000 0 -3632824.246 14090989.286 21006543.972 10 0 60458 36900.00000 0 -4906196.348 11763944.674 22147283.282 10 0 60458 37800.00000 0 -6411282.935 9442575.644 22860183.225 10 0 60458 38700.00000 0 -8120496.861 7190402.212 23131372.890 10 0 60458 39600.00000 0 -9995153.600 5065552.135 22955463.065 10 0 60458 40500.00000 0 -11986895.270 3118533.926 22335659.761 10 0 60458 41400.00000 0 -14039532.359 1390335.263 21283718.172 10 0 60458 42300.00000 0 -16091229.453 -89075.386 19819736.720 10 0 60458 43200.00000 0 -18076946.902 -1301782.175 17971793.401 10 0 60458 44100.00000 0 -19931039.251 -2242447.198 15775429.221 10 0 60458 45000.00000 0 -21589903.964 -2918305.059 13272986.351 10 0 60458 45900.00000 0 -22994570.964 -3348625.818 10512811.388 10 0 60458 46800.00000 0 -24093124.831 -3563667.527 7548336.995 10 0 60458 47700.00000 0 -24842857.450 -3603161.052 4437058.008 10 0 60458 48600.00000 0 -25212059.208 -3514390.015 1239420.761 10 0 60458 49500.00000 0 -25181371.250 -3349946.405 -1982353.266 10 0 60458 50400.00000 0 -24744639.312 -3165256.898 -5165486.267 10 0 60458 51300.00000 0 -23909230.531 -3015985.503 -8247880.726 10 0 60458 52200.00000 0 -22695797.411 -2955424.208 -11169348.237 10 0 60458 53100.00000 0 -21137496.975 -3031984.437 -13872804.609 10 0 60458 54000.00000 0 -19278696.697 -3286898.290 -16305405.816 10 0 60458 54900.00000 0 -17173221.188 -3752229.768 -18419600.545 10 0 60458 55800.00000 0 -14882213.624 -4449282.922 -20174076.814 10 0 60458 56700.00000 0 -12471702.668 -5387476.684 -21534582.594 10 0 60458 57600.00000 0 -10009978.300 -6563735.838 -22474603.333 10 0 60458 58500.00000 0 -7564888.092 -7962425.097 -22975882.458 10 0 60458 59400.00000 0 -5201168.560 -9555829.685 -23028774.633 10 0 60458 60300.00000 0 -2977924.312 -11305162.158 -22632425.228 10 0 60458 61200.00000 0 -946360.916 -13162052.515 -21794773.259 10 0 60458 62100.00000 0 852133.969 -15070458.000 -20532378.884 10 0 60458 63000.00000 0 2387482.062 -16968911.219 -18870080.104 10 0 60458 63900.00000 0 3641917.933 -18793010.966 -16840486.911 10 0 60458 64800.00000 0 4610465.066 -20478050.230 -14483324.261 10 0 60458 65700.00000 0 5300867.662 -21961670.424 -11844638.204 10 0 60458 66600.00000 0 5732984.390 -23186430.252 -8975882.100 10 0 60458 67500.00000 0 5937673.054 -24102181.719 -5932901.989 10 0 60458 68400.00000 0 5955216.273 -24668154.490 -2774841.887 10 0 60458 69300.00000 0 5833357.267 -24854662.419 437008.904 10 0 60458 70200.00000 0 5625030.639 -24644362.424 3640403.675 10 0 60458 71100.00000 0 5385885.238 -24033014.784 6773338.351 10 0 60458 72000.00000 0 5171704.131 -23029714.915 9775240.767 10 0 60458 72900.00000 0 5035830.319 -21656588.611 12588127.059 10 0 60458 73800.00000 0 5026705.910 -19947964.753 15157704.040 10 0 60458 74700.00000 0 5185627.150 -17949060.751 17434397.835 10 0 60458 75600.00000 0 5544808.394 -15714235.564 19374290.760 10 0 60458 76500.00000 0 6125835.043 -13304882.310 20939950.333 10 0 60458 77400.00000 0 6938569.442 -10787046.762 22101136.242 10 0 60458 78300.00000 0 7980555.173 -8228868.658 22835373.356 10 0 60458 79200.00000 0 9236945.056 -5697949.655 23128380.938 10 0 60458 80100.00000 0 10680956.950 -3258754.572 22974350.536 10 0 60458 81000.00000 0 12274840.182 -970151.195 22376067.284 10 0 60458 81900.00000 0 13971314.732 1116811.463 21344871.706 10 0 60458 82800.00000 0 15715425.920 2960795.903 19900461.550 10 0 60458 83700.00000 0 17446740.159 4531662.244 18070535.717 10 0 60458 84600.00000 0 19101792.828 5811486.223 15890284.986 10 0 60458 85500.00000 0 20616688.204 6795066.271 13401736.975 10 0 60459 0.00000 0 21929744.112 7489897.611 10652965.913 10 0 60459 900.00000 0 22984071.829 7915613.568 7697178.789 10 0 60459 1800.00000 0 23729980.926 8102915.353 4591697.642 10 0 60459 2700.00000 0 24127109.178 8092035.426 1396851.648 10 0 60459 3600.00000 0 24146184.096 7930797.437 -1825196.311 10 0 60459 4500.00000 0 23770340.093 7672354.897 -5011666.943 10 0 60459 5400.00000 0 22995932.828 7372704.620 -8100400.834 10 0 60459 6300.00000 0 21832813.598 7088081.404 -11031088.214 10 0 60459 7200.00000 0 20304049.759 6872346.165 -13746466.247 10 0 60459 8100.00000 0 18445101.050 6774480.511 -16193458.427 10 0 60459 9000.00000 0 16302485.317 6836296.517 -18324231.718 10 0 60459 9900.00000 0 13931989.362 7090461.311 -20097148.846 10 0 60459 10800.00000 0 11396500.390 7558922.487 -21477595.526 10 0 60459 11700.00000 0 8763549.921 8251802.891 -22438665.361 10 0 60459 12600.00000 0 6102674.363 9166812.864 -22961688.312 10 0 60459 13500.00000 0 3482704.059 10289205.487 -23036592.335 10 0 60459 14400.00000 0 969095.325 11592276.761 -22662091.445 10 0 60459 15300.00000 0 -1378582.250 13038389.118 -21845697.300 10 0 60459 16200.00000 0 -3508898.164 14580474.174 -20603555.178 10 0 60459 17100.00000 0 -5380459.600 16163950.193 -18960108.873 10 0 60459 18000.00000 0 -6963378.290 17728972.209 -16947602.549 10 0 60459 18900.00000 0 -8240246.521 19212918.866 -14605430.789 10 0 60459 19800.00000 0 -9206584.248 20553010.393 -11979351.056 10 0 60459 20700.00000 0 -9870741.824 21688946.984 -9120575.348 10 0 60459 21600.00000 0 -10253265.897 22565456.535 -6084760.027 10 0 60459 22500.00000 0 -10385758.543 23134645.036 -2930914.526 10 0 60459 23400.00000 0 -10309280.693 23358051.723 279749.041 10 0 60459 24300.00000 0 -10072369.675 23208323.985 3485002.592 10 0 60459 25200.00000 0 -9728756.225 22670443.292 6622802.064 10 0 60459 26100.00000 0 -9334878.263 21742452.404 9632477.774 10 0 60459 27000.00000 0 -8947296.467 20435654.976 12455892.926 10 0 60459 27900.00000 0 -8620120.035 18774280.469 15038549.129 10 0 60459 28800.00000 0 -8402549.984 16794629.141 17330619.090 10 0 60459 29700.00000 0 -8336641.862 14543732.936 19287888.393 10 0 60459 30600.00000 0 -8455380.395 12077587.481 20872590.148 10 0 60459 31500.00000 0 -8781145.519 9459027.451 22054118.241 10 0 60459 32400.00000 0 -9324633.131 6755331.686 22809607.146 10 0 60459 33300.00000 0 -10084275.466 4035654.984 23124368.363 10 0 60459 34200.00000 0 -11046185.760 1368390.484 22992175.835 10 0 60459 35100.00000 0 -12184630.679 -1181430.798 22415394.961 10 0 60459 36000.00000 0 -13463012.690 -3554597.934 21404952.180 10 0 60459 36900.00000 0 -14835323.722 -5699935.654 19980144.558 10 0 60459 37800.00000 0 -16248012.080 -7576186.979 18168291.279 10 0 60459 38700.00000 0 -17642187.285 -9153485.427 16004231.644 10 0 60459 39600.00000 0 -18956072.950 -10414355.449 13529676.907 10 0 60459 40500.00000 0 -20127606.780 -11354198.795 10792426.064 10 0 60459 41400.00000 0 -21097079.685 -11981245.365 7845458.626 10 0 60459 42300.00000 0 -21809703.253 -12315969.282 4745920.202 10 0 60459 43200.00000 0 -22217996.757 -12389993.410 1554019.370 10 0 60459 44100.00000 0 -22283891.503 -12244527.372 -1668143.226 10 0 60459 45000.00000 0 -21980461.367 -11928404.345 -4857790.560 10 0 60459 45900.00000 0 -21293203.736 -11495799.660 -7952705.135 10 0 60459 46800.00000 0 -20220813.755 -11003728.390 -10892459.601 10 0 60459 47700.00000 0 -18775416.426 -10509429.309 -13619616.165 10 0 60459 48600.00000 0 -16982244.300 -10067747.936 -16080869.321 10 0 60459 49500.00000 0 -14878772.574 -9728631.856 -18228107.480 10 0 60459 50400.00000 0 -12513346.908 -9534846.797 -20019370.816 10 0 60459 51300.00000 0 -9943361.369 -9520012.472 -21419684.984 10 0 60459 52200.00000 0 -7233063.287 -9707043.223 -22401753.310 10 0 60459 53100.00000 0 -4451077.935 -10107060.836 -22946493.191 10 0 60459 54000.00000 0 -1667757.787 -10718826.223 -23043406.105 10 0 60459 54900.00000 0 1047531.706 -11528714.090 -22690774.334 10 0 60459 55800.00000 0 3629075.469 -12511231.121 -21895681.242 10 0 60459 56700.00000 0 6017309.646 -13630054.798 -20673855.846 10 0 60459 57600.00000 0 8161055.735 -14839547.621 -19049345.971 10 0 60459 58500.00000 0 10019395.637 -16086681.331 -17054027.880 10 0 60459 59400.00000 0 11563110.979 -17313288.448 -14726963.457 10 0 60459 60300.00000 0 12775628.940 -18458544.873 -12113619.031 10 0 60459 61200.00000 0 13653437.918 -19461577.909 -9264962.503 10 0 60459 62100.00000 0 14205958.942 -20264089.252 -6236457.672 10 0 60459 63000.00000 0 14454881.663 -20812882.447 -3086976.394 10 0 60459 63900.00000 0 14432996.078 -21062188.840 122349.449 10 0 60459 64800.00000 0 14182572.012 -20975695.099 3329313.425 10 0 60459 65700.00000 0 13753356.844 -20528188.350 6471834.434 10 0 60459 66600.00000 0 13200277.268 -19706751.251 9489148.062 10 0 60459 67500.00000 0 12580942.612 -18511458.375 12322967.159 10 0 60459 68400.00000 0 11953054.647 -16955545.917 14918590.442 10 0 60459 69300.00000 0 11371832.114 -15065048.501 17225939.204 10 0 60459 70200.00000 0 10887556.863 -12877918.498 19200503.966 10 0 60459 71100.00000 0 10543343.049 -10442664.132 20804184.740 10 0 60459 72000.00000 0 10373221.335 -7816561.956 22006010.552 10 0 60459 72900.00000 0 10400616.972 -5063516.158 22782726.051 10 0 60459 73800.00000 0 10637284.538 -2251651.189 23119235.188 10 0 60459 74700.00000 0 11082743.620 549265.165 23008894.169 10 0 60459 75600.00000 0 11724239.513 3270464.332 22453648.212 10 0 60459 76500.00000 0 12537231.746 5846778.351 21464008.961 10 0 60459 77400.00000 0 13486391.900 8219094.644 20058871.828 10 0 60459 78300.00000 0 14527071.242 10336564.116 18265175.102 10 0 60459 79200.00000 0 15607179.300 12158472.006 16117405.239 10 0 60459 80100.00000 0 16669397.046 13655693.957 13656955.564 10 0 60459 81000.00000 0 17653633.890 14811676.281 10931348.359 10 0 60459 81900.00000 0 18499626.684 15622898.524 7993333.243 10 0 60459 82800.00000 0 19149571.956 16098797.628 4899877.526 10 0 60459 83700.00000 0 19550680.147 16261155.421 1711066.934 10 0 60459 84600.00000 0 19657542.881 16142973.854 -1511062.507 10 0 60459 85500.00000 0 19434211.243 15786884.391 -4703738.486 10 0 60460 0.00000 0 18855894.695 15243158.344 -7804687.593 10 0 60460 900.00000 0 17910205.466 14567402.113 -10753367.834 10 0 60460 1800.00000 0 16597893.627 13818036.540 -13492168.417 10 0 60460 2700.00000 0 14933038.005 13053667.579 -15967556.908 10 0 60460 3600.00000 0 12942683.214 12330462.268 -18131145.050 10 0 60460 4500.00000 0 10665936.198 11699643.007 -19940652.164 10 0 60460 5400.00000 0 8152559.411 11205208.388 -21360745.388 10 0 60460 6300.00000 0 5461119.476 10881978.912 -22363739.154 10 0 60460 7200.00000 0 2656769.441 10754051.653 -22930139.528 10 0 60460 8100.00000 0 -191241.695 10833729.996 -23049022.574 10 0 60460 9000.00000 0 -3012226.971 11120973.795 -22718239.664 10 0 60460 9900.00000 0 -5736774.897 11603392.634 -21944446.429 10 0 60460 10800.00000 0 -8299404.335 12256781.353 -20742955.848 10 0 60460 11700.00000 0 -10641049.858 13046173.659 -19137419.646 10 0 60460 12600.00000 0 -12711274.221 13927367.541 -17159345.685 10 0 60460 13500.00000 0 -14470116.770 14848856.194 -14847462.321 10 0 60460 14400.00000 0 -15889502.441 15754081.203 -12246943.607 10 0 60460 15300.00000 0 -16954154.881 16583911.423 -9408511.951 10 0 60460 16200.00000 0 -17661978.512 17279241.905 -6387436.974 10 0 60460 17100.00000 0 -18023896.738 17783602.712 -3242451.152 10 0 60460 18000.00000 0 -18063156.382 18045667.605 -34604.146 10 0 60460 18900.00000 0 -17814130.595 18021557.412 3173921.429 10 0 60460 19800.00000 0 -17320673.164 17676842.038 6321009.788 10 0 60460 20700.00000 0 -16634095.306 16988158.109 9345804.317 10 0 60460 21600.00000 0 -15810851.202 15944375.638 12189870.213 10 0 60460 22500.00000 0 -14910029.873 14547265.976 14798306.131 10 0 60460 23400.00000 0 -13990758.361 12811643.989 17120784.867 10 0 60460 24300.00000 0 -13109624.103 10764978.920 19112504.805 10 0 60460 25200.00000 0 -12318223.072 8446489.924 20735035.730 10 0 60460 26100.00000 0 -11660934.649 5905763.033 21957044.538 10 0 60460 27000.00000 0 -11173014.613 3200945.428 22754888.568 10 0 60460 27900.00000 0 -10879084.611 396589.703 23113066.437 10 0 60460 28800.00000 0 -10792080.307 -2438765.095 23024518.474 10 0 60460 29700.00000 0 -10912701.923 -5235178.357 22490771.149 10 0 60460 30600.00000 0 -11229390.605 -7923954.534 21521922.257 10 0 60460 31500.00000 0 -11718832.775 -10440244.405 20136465.997 10 0 60460 32400.00000 0 -12346973.135 -12725495.253 18360959.652 10 0 60460 33300.00000 0 -13070496.039 -14729649.701 16229536.176 10 0 60460 34200.00000 0 -13838715.380 -16413002.406 13783269.774 10 0 60460 35100.00000 0 -14595795.715 -17747637.220 11069404.327 10 0 60460 36000.00000 0 -15283212.883 -18718384.036 8140457.418 10 0 60460 36900.00000 0 -15842351.414 -19323253.978 5053215.531 10 0 60460 37800.00000 0 -16217129.310 -19573333.121 1867638.669 10 0 60460 38700.00000 0 -16356538.558 -19492137.619 -1354304.907 10 0 60460 39600.00000 0 -16216992.344 -19114455.982 -4549850.989 10 0 60460 40500.00000 0 -15764377.308 -18484726.461 -7656674.374 10 0 60460 41400.00000 0 -14975721.171 -17655017.730 -10614120.999 10 0 60460 42300.00000 0 -13840402.063 -16682698.608 -13364411.394 10 0 60460 43200.00000 0 -12360845.438 -15627896.421 -15853789.898 10 0 60460 44100.00000 0 -10552676.398 -14550853.052 -18033595.121 10 0 60460 45000.00000 0 -8444318.855 -13509292.460 -19861228.766 10 0 60460 45900.00000 0 -6076056.944 -12555912.963 -21301002.249 10 0 60460 46800.00000 0 -3498597.363 -11736112.162 -22324843.385 10 0 60460 47700.00000 0 -771192.946 -11086042.068 -22912848.570 10 0 60460 48600.00000 0 2040593.421 -10631077.479 -23053669.484 10 0 60460 49500.00000 0 4867390.115 -10384762.475 -22744727.014 10 0 60460 50400.00000 0 7638677.788 -10348278.973 -21992248.911 10 0 60460 51300.00000 0 10285498.032 -10510458.645 -20811131.464 10 0 60460 52200.00000 0 12743096.137 -10848335.951 -19224629.192 10 0 60460 53100.00000 0 14953387.534 -11328216.900 -17263880.047 10 0 60460 54000.00000 0 16867145.607 -11907216.175 -14967276.939 10 0 60460 54900.00000 0 18445820.776 -12535195.493 -12379699.365 10 0 60460 55800.00000 0 19662916.781 -13157019.398 -9551621.589 10 0 60460 56700.00000 0 20504869.110 -13715031.633 -6538116.081 10 0 60460 57600.00000 0 20971391.751 -14151646.450 -3397772.685 10 0 60460 58500.00000 0 21075280.801 -14411944.971 -191555.410 10 0 60460 59400.00000 0 20841686.261 -14446167.131 3018380.466 10 0 60460 60300.00000 0 20306885.309 -14211994.709 6169887.947 10 0 60460 61200.00000 0 19516610.782 -13676530.252 9202021.556 10 0 60460 62100.00000 0 18524006.578 -12817889.830 12056201.921 10 0 60460 63000.00000 0 17387296.519 -11626343.884 14677330.398 10 0 60460 63900.00000 0 16167264.446 -10104959.330 17014833.672 10 0 60460 64800.00000 0 14924650.310 -8269716.592 19023619.981 10 0 60460 65700.00000 0 13717569.968 -6149096.651 20664930.461 10 0 60460 66600.00000 0 12599064.818 -3783154.665 21907071.044 10 0 60460 67500.00000 0 11614881.809 -1222117.298 22726012.517 10 0 60460 68400.00000 0 10801574.728 1475440.038 23105848.530 10 0 60460 69300.00000 0 10185004.602 4244762.916 23039103.500 10 0 60460 70200.00000 0 9779300.908 7017347.600 22526884.757 10 0 60460 71100.00000 0 9586326.719 9723533.019 21578875.503 10 0 60460 72000.00000 0 9595670.625 12295150.367 20213167.651 10 0 60460 72900.00000 0 9785166.892 14668122.892 18455936.128 10 0 60460 73800.00000 0 10121923.731 16784909.723 16340958.775 10 0 60460 74700.00000 0 10563818.506 18596693.134 13908988.838 10 0 60460 75600.00000 0 11061399.060 20065218.358 11206989.750 10 0 60460 76500.00000 0 11560112.901 21164208.626 8287244.824 10 0 60460 77400.00000 0 12002771.514 21880295.008 5206357.315 10 0 60460 78300.00000 0 12332146.304 22213420.462 2024158.973 10 0 60460 79200.00000 0 12493586.093 22176699.305 -1197452.324 10 0 60460 80100.00000 0 12437544.270 21795736.296 -4395723.100 10 0 60460 81000.00000 0 12121906.565 21107432.641 -7508278.658 10 0 60460 81900.00000 0 11514018.311 20158328.460 -10474355.878 10 0 60460 82800.00000 0 10592322.305 19002551.551 -13236008.597 10 0 60460 83700.00000 0 9347534.900 17699459.600 -15739259.976 10 0 60460 84600.00000 0 7783307.610 16311076.614 -17935177.315 10 0 60460 85500.00000 0 5916343.796 14899433.448 -19780846.298 10 0 60461 0.00000 0 3775963.740 13523926.713 -21240223.907 10 0 60461 900.00000 0 1403133.999 12238808.587 -22284852.801 10 0 60461 1800.00000 0 -1150995.801 11090916.820 -22894420.556 10 0 60461 2700.00000 0 -3826991.041 10117739.225 -23057155.240 10 0 60461 3600.00000 0 -6559382.157 9345896.449 -22770047.755 10 0 60461 4500.00000 0 -9279172.722 8790105.882 -22038898.148 10 0 60461 5400.00000 0 -11916499.581 8452669.383 -20878185.843 10 0 60461 6300.00000 0 -14403333.166 8323504.662 -19310767.597 10 0 60461 7200.00000 0 -16676104.743 8380716.774 -17367410.540 10 0 60461 8100.00000 0 -18678151.024 8591683.065 -15086170.924 10 0 60461 9000.00000 0 -20361874.741 8914603.178 -12511632.233 10 0 60461 9900.00000 0 -21690532.221 9300446.224 -9694018.962 10 0 60461 10800.00000 0 -22639575.230 9695210.726 -6688204.687 10 0 60461 11700.00000 0 -23197493.365 10042400.262 -3552634.799 10 0 60461 12600.00000 0 -23366124.501 10285609.149 -348185.758 10 0 60461 13500.00000 0 -23160423.174 10371108.590 2863016.477 10 0 60461 14400.00000 0 -22607699.342 10250324.268 6018795.793 10 0 60461 15300.00000 0 -21746361.823 9882101.587 9058120.065 10 0 60461 16200.00000 0 -20624220.898 9234664.158 11922267.699 10 0 60461 17100.00000 0 -19296422.303 8287184.268 14555945.206 10 0 60461 18000.00000 0 -17823099.448 7030900.467 16908335.674 10 0 60461 18900.00000 0 -16266841.651 5469736.188 18934059.710 10 0 60461 19800.00000 0 -14690083.066 3620393.759 20594032.238 10 0 60461 20700.00000 0 -13152519.705 1511919.519 21856200.511 10 0 60461 21600.00000 0 -11708660.346 -815242.936 22696150.837 10 0 60461 22500.00000 0 -10405611.423 -3310673.818 23097573.688 10 0 60461 23400.00000 0 -9281186.370 -5915815.828 23052579.060 10 0 60461 24300.00000 0 -8362416.796 -8566157.018 22561856.271 10 0 60461 25200.00000 0 -7664526.679 -11193670.324 21634674.694 10 0 60461 26100.00000 0 -7190412.219 -13729411.537 20288724.333 10 0 60461 27000.00000 0 -6930649.541 -16106170.580 18549797.720 10 0 60461 27900.00000 0 -6864031.058 -18261068.100 16451317.140 10 0 60461 28800.00000 0 -6958609.515 -20137990.724 14033714.019 10 0 60461 29700.00000 0 -7173207.664 -21689764.086 11343670.094 10 0 60461 30600.00000 0 -7459331.732 -22879972.638 8433232.797 10 0 60461 31500.00000 0 -7763409.414 -23684349.068 5358820.215 10 0 60461 32400.00000 0 -8029258.723 -24091673.471 2180133.599 10 0 60461 33300.00000 0 -8200683.372 -24104142.561 -1041002.073 10 0 60461 34200.00000 0 -8224084.073 -23737191.344 -4241846.835 10 0 60461 35100.00000 0 -8050973.550 -23018772.957 -7359979.519 10 0 60461 36000.00000 0 -7640286.446 -21988125.654 -10334531.187 10 0 60461 36900.00000 0 -6960383.422 -20694078.224 -13107392.369 10 0 60461 37800.00000 0 -5990661.550 -19192965.305 -15624368.525 10 0 60461 38700.00000 0 -4722699.795 -17546241.229 -17836259.085 10 0 60461 39600.00000 0 -3160888.435 -15817894.257 -19699837.001 10 0 60461 40500.00000 0 -1322513.549 -14071771.871 -21178708.043 10 0 60461 41400.00000 0 762708.626 -12368931.496 -22244031.781 10 0 60461 42300.00000 0 3053628.822 -10765129.871 -22875089.380 10 0 60461 43200.00000 0 5499151.719 -9308557.878 -23059686.863 10 0 60461 44100.00000 0 8040150.132 -8037916.751 -22794386.172 10 0 60461 45000.00000 0 10611725.445 -6980916.458 -22084560.141 10 0 60461 45900.00000 0 13145718.746 -6153258.509 -20944271.308 10 0 60461 46800.00000 0 15573366.733 -5558144.351 -19395978.169 10 0 60461 47700.00000 0 17827990.563 -5186327.781 -17470076.061 10 0 60461 48600.00000 0 19847604.960 -5016706.490 -15204283.137 10 0 60461 49500.00000 0 21577338.689 -5017424.858 -12642884.940 10 0 60461 50400.00000 0 22971565.961 -5147438.624 -9835853.815 10 0 60461 51300.00000 0 23995661.003 -5358472.706 -6837861.617 10 0 60461 52200.00000 0 24627304.353 -5597287.300 -3707206.089 10 0 60461 53100.00000 0 24857288.467 -5808154.893 -504672.672 10 0 60461 54000.00000 0 24689791.540 -5935442.597 2707645.618 10 0 60461 54900.00000 0 24142110.637 -5926190.449 5867547.198 10 0 60461 55800.00000 0 23243867.693 -5732577.161 8913916.832 10 0 60461 56700.00000 0 22035723.582 -5314170.162 11787894.025 10 0 60461 57600.00000 0 20567655.396 -4639866.211 14433993.464 10 0 60461 58500.00000 0 18896869.596 -3689442.131 16801157.309 10 0 60461 59400.00000 0 17085438.082 -2454651.551 18843720.821 10 0 60461 60300.00000 0 15197754.921 -939822.200 20522274.608 10 0 60461 61200.00000 0 13297918.327 838071.151 21804408.746 10 0 60461 62100.00000 0 11447144.972 2849861.904 22665326.170 10 0 60461 63000.00000 0 9701322.122 5055157.452 23088314.883 10 0 60461 63900.00000 0 8108797.352 7403777.511 23065070.755 10 0 60461 64800.00000 0 6708495.911 9837607.817 22595864.974 10 0 60461 65700.00000 0 5528442.750 12292795.206 21689552.544 10 0 60461 66600.00000 0 4584749.968 14702195.933 20363420.624 10 0 60461 67500.00000 0 3881111.823 16997978.402 18642878.032 10 0 60461 68400.00000 0 3408828.932 19114274.524 16560989.834 10 0 60461 69300.00000 0 3147361.728 20989771.050 14157863.681 10 0 60461 70200.00000 0 3065391.402 22570133.775 11479897.393 10 0 60461 71100.00000 0 3122345.288 23810163.431 8578900.082 10 0 60461 72000.00000 0 3270323.852 24675592.195 5511102.030 10 0 60461 72900.00000 0 3456348.967 25144444.035 2336071.223 10 0 60461 73800.00000 0 3624838.842 25207899.722 -884443.118 10 0 60461 74700.00000 0 3720204.487 24870627.869 -4087717.417 10 0 60461 75600.00000 0 3689456.574 24150565.882 -7211286.851 10 0 60461 76500.00000 0 3484710.302 23078158.161 -10194179.341 10 0 60461 77400.00000 0 3065479.601 21695082.351 -12978124.604 10 0 60461 78300.00000 0 2400660.579 20052516.711 -15508712.644 10 0 60461 79200.00000 0 1470117.234 18209021.706 -17736477.003 10 0 60461 80100.00000 0 265799.460 16228125.860 -19617879.629 10 0 60461 81000.00000 0 -1207656.348 14175718.755 -21116176.432 10 0 60461 81900.00000 0 -2932871.396 12117362.433 -22202145.359 10 0 60461 82800.00000 0 -4880216.919 10115635.807 -22854661.948 10 0 60461 83700.00000 0 -7008834.798 8227624.988 -23061110.808 10 0 60461 84600.00000 0 -9268143.461 6502665.731 -22817625.200 10 0 60461 85500.00000 0 -11599765.297 4980432.977 -22129150.634 99